This demonstration page uses our WeatherBlox Daily Observations layout. Learn more.

Left ArrowRight Arrow

Hourly Observations for July 3, 2015

Temp ( °F °C ) Dew Point ( °F °C ) Humidity (%) Winds ( mph kmh ) Pressure ( in mb ) Visibility ( mi km ) Precip ( " mm )
12:51 am 00:51 Partly Cloudy with Light Rain 87 30.6 57 13.9 36 36 N 8 13 29.75 1008 10 16.0934 N/A
1:04 am 01:04 Mostly Cloudy with Nearby Thunderstorms 87 30.6 57 13.9 36 36 N 8 13 29.71 1006 10 16.0934 N/A
1:14 am 01:14 Mostly Cloudy with Thunderstorms 86 30 57 13.9 37 37 N 6 9 29.71 1006 10 16.0934 N/A
1:40 am 01:40 Cloudy with Heavy Thunderstorms 73 23 66 19 78 78 ENE 20 31 29.83 1010 2.5 4.02335 N/A
1:48 am 01:48 Cloudy with Heavy Thunderstorms 73 23 64 18 74 74 E 14 22 29.85 1011 1.75 2.816345 0.21 5.334
1:51 am 01:51 Cloudy with Heavy Thunderstorms 71 21.7 65 18.3 81 81 ESE 16 26 29.85 1011 1.75 2.816345 0.24 6.096
1:55 am 01:55 Cloudy with Heavy Thunderstorms 70 21.1 66 18.9 87 87 SE 18 30 29.91 1013 2 3.21868 0.07 1.778
2:05 am 02:05 Cloudy with Heavy Thunderstorms 71 21.7 66 18.9 84 84 S 17 28 29.94 1014 3 4.82802 0.21 5.334
2:36 am 02:36 Cloudy with Nearby Thunderstorms 70 21.1 67 19.4 90 90 S 5 7 29.94 1014 8 12.87472 0.31 7.874
2:51 am 02:51 Cloudy with Nearby Thunderstorms 70 21.1 67 19.4 90 90 SSE 8 13 29.9 1012 8 12.87472 0.32 8.128
3:21 am 03:21 Mostly Cloudy with Light Rain 70 21.1 68 20 93 93 E 6 9 29.94 1014 10 16.0934 0.04 1.016
3:51 am 03:51 Mostly Cloudy with Light Rain 70 21.1 68 20 93 93 E 6 9 29.88 1012 10 16.0934 0.06 1.524
4:51 am 04:51 Cloudy 71 21.7 68 20 90 90 ENE 13 20 29.91 1013 10 16.0934 N/A
5:14 am 05:14 Mostly Cloudy with Nearby Thunderstorms 71 21.7 67 19.4 87 87 NNE 7 11 29.94 1014 10 16.0934 0.01 0.254
5:29 am 05:29 Cloudy with Light Rain 87 30.6 69 20.6 55 55 N N/A 29.94 1014 10 16.0934 0.01 0.254
5:51 am 05:51 Cloudy with Light Rain 71 21.7 68 20 90 90 N N/A 29.91 1013 10 16.0934 0.02 0.508
6:51 am 06:51 Partly Cloudy with Light Rain 71 21.7 68 20 90 90 N N/A 29.88 1012 10 16.0934 0.01 0.254
7:51 am 07:51 Mostly Cloudy 72 22.2 69 20.6 91 91 S 8 13 29.91 1013 10 16.0934 N/A
8:51 am 08:51 Sunny 74 23.3 69 20.6 85 85 SW 8 13 29.89 1012 10 16.0934 N/A
9:51 am 09:51 Sunny 77 25 66 18.9 69 69 VRB 5 7 29.87 1012 10 16.0934 N/A
10:51 am 10:51 Sunny 82 27.8 65 18.3 56 56 NNW 6 9 29.85 1011 10 16.0934 N/A
11:51 am 11:51 Sunny 85 29.4 64 17.8 50 50 VRB 3 6 29.83 1010 10 16.0934 N/A
12:51 pm 12:51 Sunny 87 30.6 64 17.8 46 46 undefined N/A 29.79 1009 10 16.0934 N/A
1:51 pm 13:51 Sunny 91 32.8 62 16.7 38 38 VRB 6 9 29.78 1009 10 16.0934 N/A
2:51 pm 14:51 Sunny 94 34.4 57 13.9 29 29 VRB 5 7 29.75 1007 10 16.0934 N/A
3:51 pm 15:51 Sunny 94 34.4 56 13.3 28 28 N N/A 29.71 1006 10 16.0934 N/A
4:51 pm 16:51 Sunny 95 35 57 13.9 28 28 NNE 7 11 29.69 1005 10 16.0934 N/A
5:51 pm 17:51 Sunny 96 35.6 57 13.9 27 27 NNW 5 7 29.67 1005 10 16.0934 N/A
6:51 pm 18:51 Sunny 94 34.4 60 15.6 32 32 NNE 6 9 29.69 1005 10 16.0934 N/A
7:51 pm 19:51 Clear 89 31.7 59 15 36 36 NNE 12 19 29.71 1006 10 16.0934 N/A
8:51 pm 20:51 Clear 88 31.1 59 15 38 38 NE 8 13 29.71 1006 10 16.0934 N/A
9:51 pm 21:51 Clear 71 21.7 58 14.4 63 63 E 8 13 29.98 1015 10 16.0934 N/A
10:51 pm 22:51 Clear 83 28.3 62 16.7 49 49 VRB 5 7 29.73 1007 10 16.0934 N/A
11:51 pm 23:51 Mostly Clear 81 27.2 67 19.4 62 62 NNE 3 6 29.75 1007 10 16.0934 N/A

Powered by AerisWeather